User: anonymous   Login
Location: Laterina
(43.5167°N, 11.7167°E)
Time: 12:18:26
(UTC+00:00)
Language:

CSL-04 Rocket - Orbit

View from above orbital plane
View from above orbital plane
View from above satellite
View from above satellite

Ground track
Ground track

The orbit data is extracted from the following two-line orbital elements,

1 25732U 99025C   20329.84615887 -.00000018 +00000-0 +13347-4 0  9999
2 25732 098.9291 359.5705 0038282 112.9403 060.4364 14.17684038114546
Epoch (UTC): 24 November 2020 20:18:28
Eccentricity: 0.0038282
inclination: 98.9291°
perigee height: 805 km
apogee height: 861 km
right ascension of ascending node: 359.5705°
argument of perigee: 112.9403°
revolutions per day: 14.17684038
mean anomaly at epoch: 60.4364°
orbit number at epoch: 11454

The dashed part of the orbit path shows where the satellite is in the earth's shadow,  

DLR